Year,Month,Day,Hour,Minute,Value (Times are PST for temperature in C)
2010,12,22,00,00,9.80
2010,12,22,00,01,9.80
2010,12,22,00,02,9.80
2010,12,22,00,03,9.80
2010,12,22,00,04,9.80
2010,12,22,00,05,9.80
2010,12,22,00,06,9.80
2010,12,22,00,07,9.80
2010,12,22,00,08,9.80
2010,12,22,00,09,9.80
2010,12,22,00,10,9.80
2010,12,22,00,11,9.80
2010,12,22,00,12,9.90
2010,12,22,00,13,9.80
2010,12,22,00,14,9.80
2010,12,22,00,15,9.80
2010,12,22,00,16,9.80
2010,12,22,00,17,9.80
2010,12,22,00,18,9.80
2010,12,22,00,19,9.80
2010,12,22,00,20,9.80
2010,12,22,00,21,9.80
2010,12,22,00,22,9.70
2010,12,22,00,23,9.70
2010,12,22,00,24,9.70
2010,12,22,00,25,9.60
2010,12,22,00,26,9.60
2010,12,22,00,27,9.60
2010,12,22,00,28,9.60
2010,12,22,00,29,9.60
2010,12,22,00,30,9.60
2010,12,22,00,31,9.60
2010,12,22,00,32,9.50
2010,12,22,00,33,9.50
2010,12,22,00,34,9.50
2010,12,22,00,35,9.50
2010,12,22,00,36,9.50
2010,12,22,00,37,9.50
2010,12,22,00,38,9.60
2010,12,22,00,39,9.60
2010,12,22,00,40,9.60
2010,12,22,00,41,9.60
2010,12,22,00,42,9.60
2010,12,22,00,43,9.60
2010,12,22,00,44,9.60
2010,12,22,00,45,9.60
2010,12,22,00,46,9.60
2010,12,22,00,47,9.60
2010,12,22,00,48,9.60
2010,12,22,00,49,9.60
2010,12,22,00,50,9.60
2010,12,22,00,51,9.60
2010,12,22,00,52,9.60
2010,12,22,00,53,9.50
2010,12,22,00,54,9.50
2010,12,22,00,55,9.50
2010,12,22,00,56,9.50
2010,12,22,00,57,9.40
2010,12,22,00,58,9.40
2010,12,22,00,59,9.40
2010,12,22,01,00,9.40
2010,12,22,01,01,9.40
2010,12,22,01,02,9.40
2010,12,22,01,03,9.30
2010,12,22,01,04,9.30
2010,12,22,01,05,9.30
2010,12,22,01,06,9.30
2010,12,22,01,07,9.30
2010,12,22,01,08,9.30
2010,12,22,01,09,9.30
2010,12,22,01,10,9.30
2010,12,22,01,11,9.30
2010,12,22,01,12,9.40
2010,12,22,01,13,9.40
2010,12,22,01,14,9.40
2010,12,22,01,15,9.40
2010,12,22,01,16,9.30
2010,12,22,01,17,9.30
2010,12,22,01,18,9.30
2010,12,22,01,19,9.30
2010,12,22,01,20,9.30
2010,12,22,01,21,9.30
2010,12,22,01,22,9.30
2010,12,22,01,23,9.30
2010,12,22,01,24,9.30
2010,12,22,01,25,9.30
2010,12,22,01,26,9.30
2010,12,22,01,27,9.30
2010,12,22,01,28,9.30
2010,12,22,01,29,9.30
2010,12,22,01,30,9.30
2010,12,22,01,31,9.30
2010,12,22,01,32,9.30
2010,12,22,01,33,9.30
2010,12,22,01,34,9.30
2010,12,22,01,35,9.30
2010,12,22,01,36,9.20
2010,12,22,01,37,9.20
2010,12,22,01,38,9.20
2010,12,22,01,39,9.20
2010,12,22,01,40,9.20
2010,12,22,01,41,9.20
2010,12,22,01,42,9.20
2010,12,22,01,43,9.20
2010,12,22,01,44,9.20
2010,12,22,01,45,9.20
2010,12,22,01,46,9.20
2010,12,22,01,47,9.20
2010,12,22,01,48,9.20
2010,12,22,01,49,9.20
2010,12,22,01,50,9.20
2010,12,22,01,51,9.20
2010,12,22,01,52,9.20
2010,12,22,01,53,9.20
2010,12,22,01,54,9.20
2010,12,22,01,55,9.10
2010,12,22,01,56,9.10
2010,12,22,01,57,9.10
2010,12,22,01,58,9.10
2010,12,22,01,59,9.10
2010,12,22,02,00,9.10
2010,12,22,02,01,9.10
2010,12,22,02,02,9.10
2010,12,22,02,03,9.10
2010,12,22,02,04,9.10
2010,12,22,02,05,9.10
2010,12,22,02,06,9.10
2010,12,22,02,07,9.10
2010,12,22,02,08,9.10
2010,12,22,02,09,9.00
2010,12,22,02,10,9.00
2010,12,22,02,11,9.10
2010,12,22,02,12,9.10
2010,12,22,02,13,9.10
2010,12,22,02,14,9.10
2010,12,22,02,15,9.00
2010,12,22,02,16,9.00
2010,12,22,02,17,9.00
2010,12,22,02,18,9.00
2010,12,22,02,19,8.90
2010,12,22,02,20,8.90
2010,12,22,02,21,8.90
2010,12,22,02,22,8.90
2010,12,22,02,23,8.90
2010,12,22,02,24,8.90
2010,12,22,02,25,8.90
2010,12,22,02,26,8.80
2010,12,22,02,27,8.80
2010,12,22,02,28,8.80
2010,12,22,02,29,8.80
2010,12,22,02,30,8.80
2010,12,22,02,31,8.70
2010,12,22,02,32,8.70
2010,12,22,02,33,8.70
2010,12,22,02,34,8.70
2010,12,22,02,35,8.70
2010,12,22,02,36,8.70
2010,12,22,02,37,8.60
2010,12,22,02,38,8.60
2010,12,22,02,39,8.60
2010,12,22,02,40,8.60
2010,12,22,02,41,8.60
2010,12,22,02,42,8.60
2010,12,22,02,43,8.60
2010,12,22,02,44,8.60
2010,12,22,02,45,8.50
2010,12,22,02,46,8.50
2010,12,22,02,47,8.50
2010,12,22,02,48,8.50
2010,12,22,02,49,8.50
2010,12,22,02,50,8.50
2010,12,22,02,51,8.50
2010,12,22,02,52,8.50
2010,12,22,02,53,8.40
2010,12,22,02,54,8.50
2010,12,22,02,55,8.50
2010,12,22,02,56,8.50
2010,12,22,02,57,8.50
2010,12,22,02,58,8.50
2010,12,22,02,59,8.50
2010,12,22,03,00,8.50
2010,12,22,03,01,8.50
2010,12,22,03,02,8.50
2010,12,22,03,03,8.50
2010,12,22,03,04,8.40
2010,12,22,03,05,8.40
2010,12,22,03,06,8.40
2010,12,22,03,07,8.40
2010,12,22,03,08,8.40
2010,12,22,03,09,8.40
2010,12,22,03,10,8.40
2010,12,22,03,11,8.40
2010,12,22,03,12,8.40
2010,12,22,03,13,8.40
2010,12,22,03,14,8.40
2010,12,22,03,15,8.40
2010,12,22,03,16,8.40
2010,12,22,03,17,8.40
2010,12,22,03,18,8.30
2010,12,22,03,19,8.30
2010,12,22,03,20,8.30
2010,12,22,03,21,8.30
2010,12,22,03,22,8.40
2010,12,22,03,23,8.40
2010,12,22,03,24,8.40
2010,12,22,03,25,8.40
2010,12,22,03,26,8.40
2010,12,22,03,27,8.40
2010,12,22,03,28,8.40
2010,12,22,03,29,8.40
2010,12,22,03,30,8.40
2010,12,22,03,31,8.40
2010,12,22,03,32,8.40
2010,12,22,03,33,8.40
2010,12,22,03,34,8.40
2010,12,22,03,35,8.40
2010,12,22,03,36,8.40
2010,12,22,03,37,8.40
2010,12,22,03,38,8.40
2010,12,22,03,39,8.40
2010,12,22,03,40,8.30
2010,12,22,03,41,8.30
2010,12,22,03,42,8.30
2010,12,22,03,43,8.30
2010,12,22,03,44,8.30
2010,12,22,03,45,8.30
2010,12,22,03,46,8.30
2010,12,22,03,47,8.30
2010,12,22,03,48,8.30
2010,12,22,03,49,8.30
2010,12,22,03,50,8.20
2010,12,22,03,51,8.20
2010,12,22,03,52,8.20
2010,12,22,03,53,8.20
2010,12,22,03,54,8.10
2010,12,22,03,55,8.10
2010,12,22,03,56,8.10
2010,12,22,03,57,8.00
2010,12,22,03,58,8.00
2010,12,22,03,59,7.90
2010,12,22,04,00,7.90
2010,12,22,04,01,7.90
2010,12,22,04,02,7.80
2010,12,22,04,03,7.80
2010,12,22,04,04,7.80
2010,12,22,04,05,7.70
2010,12,22,04,06,7.70
2010,12,22,04,07,7.70
2010,12,22,04,08,7.60
2010,12,22,04,09,7.60
2010,12,22,04,10,7.60
2010,12,22,04,11,7.50
2010,12,22,04,12,7.50
2010,12,22,04,13,7.40
2010,12,22,04,14,7.40
2010,12,22,04,15,7.40
2010,12,22,04,16,7.30
2010,12,22,04,17,7.30
2010,12,22,04,18,7.30
2010,12,22,04,19,7.30
2010,12,22,04,20,7.20
2010,12,22,04,21,7.20
2010,12,22,04,22,7.20
2010,12,22,04,23,7.20
2010,12,22,04,24,7.20
2010,12,22,04,25,7.10
2010,12,22,04,26,7.10
2010,12,22,04,27,7.10
2010,12,22,04,28,7.10
2010,12,22,04,29,7.00
2010,12,22,04,30,7.00
2010,12,22,04,31,7.00
2010,12,22,04,32,6.90
2010,12,22,04,33,6.90
2010,12,22,04,34,6.90
2010,12,22,04,35,6.90
2010,12,22,04,36,6.90
2010,12,22,04,37,6.90
2010,12,22,04,38,6.90
2010,12,22,04,39,6.90
2010,12,22,04,40,6.80
2010,12,22,04,41,6.80
2010,12,22,04,42,6.80
2010,12,22,04,43,6.80
2010,12,22,04,44,6.80
2010,12,22,04,45,6.80
2010,12,22,04,46,6.80
2010,12,22,04,47,6.70
2010,12,22,04,48,6.70
2010,12,22,04,49,6.70
2010,12,22,04,50,6.60
2010,12,22,04,51,6.60
2010,12,22,04,52,6.60
2010,12,22,04,53,6.60
2010,12,22,04,54,6.50
2010,12,22,04,55,6.50
2010,12,22,04,56,6.50
2010,12,22,04,57,6.50
2010,12,22,04,58,6.50
2010,12,22,04,59,6.40
2010,12,22,05,00,6.40
2010,12,22,05,01,6.40
2010,12,22,05,02,6.40
2010,12,22,05,03,6.40
2010,12,22,05,04,6.40
2010,12,22,05,05,6.40
2010,12,22,05,06,6.40
2010,12,22,05,07,6.40
2010,12,22,05,08,6.40
2010,12,22,05,09,6.40
2010,12,22,05,10,6.40
2010,12,22,05,11,6.40
2010,12,22,05,12,6.40
2010,12,22,05,13,6.50
2010,12,22,05,14,6.50
2010,12,22,05,15,6.60
2010,12,22,05,16,6.60
2010,12,22,05,17,6.60
2010,12,22,05,18,6.60
2010,12,22,05,19,6.60
2010,12,22,05,20,6.60
2010,12,22,05,21,6.60
2010,12,22,05,22,6.60
2010,12,22,05,23,6.60
2010,12,22,05,24,6.50
2010,12,22,05,25,6.50
2010,12,22,05,26,6.50
2010,12,22,05,27,6.40
2010,12,22,05,28,6.40
2010,12,22,05,29,6.40
2010,12,22,05,30,6.30
2010,12,22,05,31,6.30
2010,12,22,05,32,6.30
2010,12,22,05,33,6.30
2010,12,22,05,34,6.30
2010,12,22,05,35,6.30
2010,12,22,05,36,6.30
2010,12,22,05,37,6.20
2010,12,22,05,38,6.20
2010,12,22,05,39,6.20
2010,12,22,05,40,6.20
2010,12,22,05,41,6.20
2010,12,22,05,42,6.30
2010,12,22,05,43,6.30
2010,12,22,05,44,6.30
2010,12,22,05,45,6.40
2010,12,22,05,46,6.40
2010,12,22,05,47,6.40
2010,12,22,05,48,6.50
2010,12,22,05,49,6.50
2010,12,22,05,50,6.50
2010,12,22,05,51,6.50
2010,12,22,05,52,6.50
2010,12,22,05,53,6.50
2010,12,22,05,54,6.60
2010,12,22,05,55,6.60
2010,12,22,05,56,6.60
2010,12,22,05,57,6.60
2010,12,22,05,58,6.60
2010,12,22,05,59,6.60
2010,12,22,06,00,6.70
2010,12,22,06,01,6.70
2010,12,22,06,02,6.80
2010,12,22,06,03,6.80
2010,12,22,06,04,6.90
2010,12,22,06,05,6.90
2010,12,22,06,06,6.90
2010,12,22,06,07,6.90
2010,12,22,06,08,7.00
2010,12,22,06,09,7.00
2010,12,22,06,10,7.00
2010,12,22,06,11,7.00
2010,12,22,06,12,7.00
2010,12,22,06,13,7.00
2010,12,22,06,14,7.00
2010,12,22,06,15,6.90
2010,12,22,06,16,6.90
2010,12,22,06,17,6.90
2010,12,22,06,18,6.80
2010,12,22,06,19,6.80
2010,12,22,06,20,6.70
2010,12,22,06,21,6.60
2010,12,22,06,22,6.60
2010,12,22,06,23,6.50
2010,12,22,06,24,6.40
2010,12,22,06,25,6.40
2010,12,22,06,26,6.30
2010,12,22,06,27,6.20
2010,12,22,06,28,6.20
2010,12,22,06,29,6.10
2010,12,22,06,30,6.10
2010,12,22,06,31,6.00
2010,12,22,06,32,5.90
2010,12,22,06,33,5.90
2010,12,22,06,34,5.80
2010,12,22,06,35,5.80
2010,12,22,06,36,5.70
2010,12,22,06,37,5.70
2010,12,22,06,38,5.70
2010,12,22,06,39,5.70
2010,12,22,06,40,5.70
2010,12,22,06,41,5.70
2010,12,22,06,42,5.60
2010,12,22,06,43,5.60
2010,12,22,06,44,5.60
2010,12,22,06,45,5.60
2010,12,22,06,46,5.60
2010,12,22,06,47,5.60
2010,12,22,06,48,5.50
2010,12,22,06,49,5.50
2010,12,22,06,50,5.40
2010,12,22,06,51,5.40
2010,12,22,06,52,5.40
2010,12,22,06,53,5.40
2010,12,22,06,54,5.30
2010,12,22,06,55,5.30
2010,12,22,06,56,5.30
2010,12,22,06,57,5.30
2010,12,22,06,58,5.30
2010,12,22,06,59,5.30
2010,12,22,07,00,5.30
2010,12,22,07,01,5.30
2010,12,22,07,02,5.30
2010,12,22,07,03,5.30
2010,12,22,07,04,5.30
2010,12,22,07,05,5.30
2010,12,22,07,06,5.30
2010,12,22,07,07,5.20
2010,12,22,07,08,5.20
2010,12,22,07,09,5.20
2010,12,22,07,10,5.20
2010,12,22,07,11,5.10
2010,12,22,07,12,5.10
2010,12,22,07,13,5.10
2010,12,22,07,14,5.10
2010,12,22,07,15,5.10
2010,12,22,07,16,5.10
2010,12,22,07,17,5.00
2010,12,22,07,18,5.00
2010,12,22,07,19,5.00
2010,12,22,07,20,4.90
2010,12,22,07,21,4.90
2010,12,22,07,22,4.90
2010,12,22,07,23,4.90
2010,12,22,07,24,4.80
2010,12,22,07,25,4.80
2010,12,22,07,26,4.80
2010,12,22,07,27,4.80
2010,12,22,07,28,4.80
2010,12,22,07,29,4.80
2010,12,22,07,30,4.90
2010,12,22,07,31,5.00
2010,12,22,07,32,5.00
2010,12,22,07,33,5.10
2010,12,22,07,34,5.10
2010,12,22,07,35,5.10
2010,12,22,07,36,5.20
2010,12,22,07,37,5.20
2010,12,22,07,38,5.20
2010,12,22,07,39,5.20
2010,12,22,07,40,5.10
2010,12,22,07,41,5.10
2010,12,22,07,42,5.10
2010,12,22,07,43,5.10
2010,12,22,07,44,5.10
2010,12,22,07,45,5.10
2010,12,22,07,46,5.10
2010,12,22,07,47,5.10
2010,12,22,07,48,5.00
2010,12,22,07,49,5.00
2010,12,22,07,50,5.00
2010,12,22,07,51,5.00
2010,12,22,07,52,5.00
2010,12,22,07,53,5.00
2010,12,22,07,54,5.00
2010,12,22,07,55,5.00
2010,12,22,07,56,4.90
2010,12,22,07,57,4.90
2010,12,22,07,58,4.90
2010,12,22,07,59,4.90
2010,12,22,08,00,4.90
2010,12,22,08,01,4.90
2010,12,22,08,02,4.90
2010,12,22,08,03,5.00
2010,12,22,08,04,5.00
2010,12,22,08,05,4.90
2010,12,22,08,06,4.90
2010,12,22,08,07,4.90
2010,12,22,08,08,4.90
2010,12,22,08,09,4.90
2010,12,22,08,10,4.90
2010,12,22,08,11,4.80
2010,12,22,08,12,4.80
2010,12,22,08,13,4.80
2010,12,22,08,14,4.80
2010,12,22,08,15,4.70
2010,12,22,08,16,4.70
2010,12,22,08,17,4.70
2010,12,22,08,18,4.70
2010,12,22,08,19,4.70
2010,12,22,08,20,4.70
2010,12,22,08,21,4.70
2010,12,22,08,22,4.70
2010,12,22,08,23,4.70
2010,12,22,08,24,4.70
2010,12,22,08,25,4.70
2010,12,22,08,26,4.70
2010,12,22,08,27,4.70
2010,12,22,08,28,4.80
2010,12,22,08,29,4.80
2010,12,22,08,30,4.80
2010,12,22,08,31,4.80
2010,12,22,08,32,4.80
2010,12,22,08,33,4.80
2010,12,22,08,34,4.80
2010,12,22,08,35,4.80
2010,12,22,08,36,4.80
2010,12,22,08,37,4.80
2010,12,22,08,38,4.70
2010,12,22,08,39,4.70
2010,12,22,08,40,4.70
2010,12,22,08,41,4.70
2010,12,22,08,42,4.70
2010,12,22,08,43,4.70
2010,12,22,08,44,4.70
2010,12,22,08,45,4.70
2010,12,22,08,46,4.70
2010,12,22,08,47,4.70
2010,12,22,08,48,4.70
2010,12,22,08,49,4.70
2010,12,22,08,50,4.70
2010,12,22,08,51,4.70
2010,12,22,08,52,4.70
2010,12,22,08,53,4.80
2010,12,22,08,54,4.80
2010,12,22,08,55,4.80
2010,12,22,08,56,4.80
2010,12,22,08,57,4.80
2010,12,22,08,58,4.80
2010,12,22,08,59,4.80
2010,12,22,09,00,4.80
2010,12,22,09,01,4.80
2010,12,22,09,02,4.80
2010,12,22,09,03,4.90
2010,12,22,09,04,4.90
2010,12,22,09,05,4.90
2010,12,22,09,06,4.90
2010,12,22,09,07,4.90
2010,12,22,09,08,4.90
2010,12,22,09,09,4.90
2010,12,22,09,10,4.90
2010,12,22,09,11,4.90
2010,12,22,09,12,4.90
2010,12,22,09,13,5.00
2010,12,22,09,14,5.00
2010,12,22,09,15,5.10
2010,12,22,09,16,5.10
2010,12,22,09,17,5.10
2010,12,22,09,18,5.10
2010,12,22,09,19,5.10
2010,12,22,09,20,5.10
2010,12,22,09,21,5.10
2010,12,22,09,22,5.10
2010,12,22,09,23,5.10
2010,12,22,09,24,5.10
2010,12,22,09,25,5.10
2010,12,22,09,26,5.10
2010,12,22,09,27,5.10
2010,12,22,09,28,5.10
2010,12,22,09,29,5.20
2010,12,22,09,30,5.20
2010,12,22,09,31,5.20
2010,12,22,09,32,5.20
2010,12,22,09,33,5.20
2010,12,22,09,34,5.30
2010,12,22,09,35,5.30
2010,12,22,09,36,5.40
2010,12,22,09,37,5.40
2010,12,22,09,38,5.40
2010,12,22,09,39,5.50
2010,12,22,09,40,5.50
2010,12,22,09,41,5.60
2010,12,22,09,42,5.70
2010,12,22,09,43,5.80
2010,12,22,09,44,5.80
2010,12,22,09,45,5.90
2010,12,22,09,46,6.00
2010,12,22,09,47,6.00
2010,12,22,09,48,6.10
2010,12,22,09,49,6.20
2010,12,22,09,50,6.20
2010,12,22,09,51,6.30
2010,12,22,09,52,6.40
2010,12,22,09,53,6.40
2010,12,22,09,54,6.50
2010,12,22,09,55,6.50
2010,12,22,09,56,6.60
2010,12,22,09,57,6.70
2010,12,22,09,58,6.70
2010,12,22,09,59,6.80
2010,12,22,10,00,6.90
2010,12,22,10,01,6.90
2010,12,22,10,02,7.00
2010,12,22,10,03,7.00
2010,12,22,10,04,7.10
2010,12,22,10,05,7.10
2010,12,22,10,06,7.20
2010,12,22,10,07,7.20
2010,12,22,10,08,7.20
2010,12,22,10,09,7.20
2010,12,22,10,10,7.30
2010,12,22,10,11,7.30
2010,12,22,10,12,7.40
2010,12,22,10,13,7.40
2010,12,22,10,14,7.40
2010,12,22,10,15,7.50
2010,12,22,10,16,7.50
2010,12,22,10,17,7.60
2010,12,22,10,18,7.60
2010,12,22,10,19,7.60
2010,12,22,10,20,7.60
2010,12,22,10,21,7.70
2010,12,22,10,22,7.70
2010,12,22,10,23,7.70
2010,12,22,10,24,7.70
2010,12,22,10,25,7.80
2010,12,22,10,26,7.80
2010,12,22,10,27,7.80
2010,12,22,10,28,7.80
2010,12,22,10,29,7.80
2010,12,22,10,30,7.90
2010,12,22,10,31,8.00
2010,12,22,10,32,8.00
2010,12,22,10,33,8.10
2010,12,22,10,34,8.10
2010,12,22,10,35,8.10
2010,12,22,10,36,8.20
2010,12,22,10,37,8.20
2010,12,22,10,38,8.20
2010,12,22,10,39,8.20
2010,12,22,10,40,8.30
2010,12,22,10,41,8.30
2010,12,22,10,42,8.30
2010,12,22,10,43,8.40
2010,12,22,10,44,8.40
2010,12,22,10,45,8.50
2010,12,22,10,46,8.60
2010,12,22,10,47,8.60
2010,12,22,10,48,8.60
2010,12,22,10,49,8.70
2010,12,22,10,50,8.70
2010,12,22,10,51,8.70
2010,12,22,10,52,8.80
2010,12,22,10,53,8.80
2010,12,22,10,54,8.80
2010,12,22,10,55,8.80
2010,12,22,10,56,8.90
2010,12,22,10,57,8.90
2010,12,22,10,58,9.00
2010,12,22,10,59,9.00
2010,12,22,11,00,9.10
2010,12,22,11,01,9.20
2010,12,22,11,02,9.30
2010,12,22,11,03,9.30
2010,12,22,11,04,9.40
2010,12,22,11,05,9.50
2010,12,22,11,06,9.60
2010,12,22,11,07,9.60
2010,12,22,11,08,9.60
2010,12,22,11,09,9.70
2010,12,22,11,10,9.70
2010,12,22,11,11,9.70
2010,12,22,11,12,9.70
2010,12,22,11,13,9.70
2010,12,22,11,14,9.70
2010,12,22,11,15,9.70
2010,12,22,11,16,9.70
2010,12,22,11,17,9.70
2010,12,22,11,18,9.70
2010,12,22,11,19,9.70
2010,12,22,11,20,9.80
2010,12,22,11,21,9.80
2010,12,22,11,22,9.80
2010,12,22,11,23,9.80
2010,12,22,11,24,9.80
2010,12,22,11,25,9.80
2010,12,22,11,26,9.80
2010,12,22,11,27,9.80
2010,12,22,11,28,9.80
2010,12,22,11,29,9.80
2010,12,22,11,30,9.90
2010,12,22,11,31,9.90
2010,12,22,11,32,9.90
2010,12,22,11,33,9.90
2010,12,22,11,34,9.90
2010,12,22,11,35,9.90
2010,12,22,11,36,9.90
2010,12,22,11,37,9.90
2010,12,22,11,38,10.00
2010,12,22,11,39,10.00
2010,12,22,11,40,10.00
2010,12,22,11,41,10.00
2010,12,22,11,42,10.10
2010,12,22,11,43,10.10
2010,12,22,11,44,10.10
2010,12,22,11,45,10.10
2010,12,22,11,46,10.10
2010,12,22,11,47,10.20
2010,12,22,11,48,10.20
2010,12,22,11,49,10.20
2010,12,22,11,50,10.20
2010,12,22,11,51,10.30
2010,12,22,11,52,10.30
2010,12,22,11,53,10.30
2010,12,22,11,54,10.30
2010,12,22,11,55,10.30
2010,12,22,11,56,10.30
2010,12,22,11,57,10.30
2010,12,22,11,58,10.40
2010,12,22,11,59,10.40
2010,12,22,12,00,10.40
2010,12,22,12,01,10.40
2010,12,22,12,02,10.40
2010,12,22,12,03,10.40
2010,12,22,12,04,10.40
2010,12,22,12,05,10.50
2010,12,22,12,06,10.50
2010,12,22,12,07,10.50
2010,12,22,12,08,10.60
2010,12,22,12,09,10.70
2010,12,22,12,10,10.70
2010,12,22,12,11,10.70
2010,12,22,12,12,10.70
2010,12,22,12,13,10.80
2010,12,22,12,14,10.80
2010,12,22,12,15,10.80
2010,12,22,12,16,10.90
2010,12,22,12,17,10.90
2010,12,22,12,18,10.90
2010,12,22,12,19,11.00
2010,12,22,12,20,11.00
2010,12,22,12,21,11.00
2010,12,22,12,22,11.00
2010,12,22,12,23,11.00
2010,12,22,12,24,11.10
2010,12,22,12,25,11.10
2010,12,22,12,26,11.10
2010,12,22,12,27,11.10
2010,12,22,12,28,11.10
2010,12,22,12,29,11.10
2010,12,22,12,30,11.10
2010,12,22,12,31,11.10
2010,12,22,12,32,11.10
2010,12,22,12,33,11.10
2010,12,22,12,34,11.10
2010,12,22,12,35,11.10
2010,12,22,12,36,11.20
2010,12,22,12,37,11.20
2010,12,22,12,38,11.20
2010,12,22,12,39,11.20
2010,12,22,12,40,11.20
2010,12,22,12,41,11.20
2010,12,22,12,42,11.20
2010,12,22,12,43,11.30
2010,12,22,12,44,11.20
2010,12,22,12,45,11.20
2010,12,22,12,46,11.20
2010,12,22,12,47,11.20
2010,12,22,12,48,11.20
2010,12,22,12,49,11.20
2010,12,22,12,50,11.10
2010,12,22,12,51,11.10
2010,12,22,12,52,11.10
2010,12,22,12,53,11.10
2010,12,22,12,54,11.10
2010,12,22,12,55,11.10
2010,12,22,12,56,11.20
2010,12,22,12,57,11.20
2010,12,22,12,58,11.20
2010,12,22,12,59,11.20
2010,12,22,13,00,11.20
2010,12,22,13,01,11.10
2010,12,22,13,02,11.10
2010,12,22,13,03,11.10
2010,12,22,13,04,11.00
2010,12,22,13,05,11.00
2010,12,22,13,06,11.00
2010,12,22,13,07,11.10
2010,12,22,13,08,11.10
2010,12,22,13,09,11.20
2010,12,22,13,10,11.20
2010,12,22,13,11,11.20
2010,12,22,13,12,11.30
2010,12,22,13,13,11.30
2010,12,22,13,14,11.30
2010,12,22,13,15,11.40
2010,12,22,13,16,11.40
2010,12,22,13,17,11.40
2010,12,22,13,18,11.50
2010,12,22,13,19,11.60
2010,12,22,13,20,11.60
2010,12,22,13,21,11.60
2010,12,22,13,22,11.60
2010,12,22,13,23,11.60
2010,12,22,13,24,11.60
2010,12,22,13,25,11.50
2010,12,22,13,26,11.40
2010,12,22,13,27,11.30
2010,12,22,13,28,11.20
2010,12,22,13,29,11.00
2010,12,22,13,30,10.90
2010,12,22,13,31,10.90
2010,12,22,13,32,10.80
2010,12,22,13,33,10.70
2010,12,22,13,34,10.70
2010,12,22,13,35,10.70
2010,12,22,13,36,10.70
2010,12,22,13,37,10.70
2010,12,22,13,38,10.60
2010,12,22,13,39,10.60
2010,12,22,13,40,10.60
2010,12,22,13,41,10.50
2010,12,22,13,42,10.50
2010,12,22,13,43,10.40
2010,12,22,13,44,10.30
2010,12,22,13,45,10.30
2010,12,22,13,46,10.30
2010,12,22,13,47,10.30
2010,12,22,13,48,10.30
2010,12,22,13,49,10.30
2010,12,22,13,50,10.30
2010,12,22,13,51,10.30
2010,12,22,13,52,10.30
2010,12,22,13,53,10.30
2010,12,22,13,54,10.20
2010,12,22,13,55,10.20
2010,12,22,13,56,10.20
2010,12,22,13,57,10.20
2010,12,22,13,58,10.20
2010,12,22,13,59,10.30
2010,12,22,14,00,10.30
2010,12,22,14,01,10.30
2010,12,22,14,02,10.30
2010,12,22,14,03,10.30
2010,12,22,14,04,10.30
2010,12,22,14,05,10.30
2010,12,22,14,06,10.30
2010,12,22,14,07,10.20
2010,12,22,14,08,10.20
2010,12,22,14,09,10.20
2010,12,22,14,10,10.10
2010,12,22,14,11,10.10
2010,12,22,14,12,10.10
2010,12,22,14,13,10.10
2010,12,22,14,14,10.10
2010,12,22,14,15,10.10
2010,12,22,14,16,10.10
2010,12,22,14,17,10.10
2010,12,22,14,18,10.00
2010,12,22,14,19,10.10
2010,12,22,14,20,10.00
2010,12,22,14,21,10.00
2010,12,22,14,22,10.00
2010,12,22,14,23,10.00
2010,12,22,14,24,10.00
2010,12,22,14,25,9.90
2010,12,22,14,26,9.90
2010,12,22,14,27,9.90
2010,12,22,14,28,9.80
2010,12,22,14,29,9.80
2010,12,22,14,30,9.70
2010,12,22,14,31,9.70
2010,12,22,14,32,9.70
2010,12,22,14,33,9.60
2010,12,22,14,34,9.60
2010,12,22,14,35,9.60
2010,12,22,14,36,9.60
2010,12,22,14,37,9.50
2010,12,22,14,38,9.50
2010,12,22,14,39,9.40
2010,12,22,14,40,9.40
2010,12,22,14,41,9.30
2010,12,22,14,42,9.30
2010,12,22,14,43,9.30
2010,12,22,14,44,9.20
2010,12,22,14,45,9.20
2010,12,22,14,46,9.20
2010,12,22,14,47,9.10
2010,12,22,14,48,9.10
2010,12,22,14,49,9.10
2010,12,22,14,50,9.00
2010,12,22,14,51,9.00
2010,12,22,14,52,8.90
2010,12,22,14,53,8.90
2010,12,22,14,54,8.90
2010,12,22,14,55,8.90
2010,12,22,14,56,8.90
2010,12,22,14,57,8.90
2010,12,22,14,58,8.80
2010,12,22,14,59,8.80
2010,12,22,15,00,8.80
2010,12,22,15,01,8.80
2010,12,22,15,02,8.80
2010,12,22,15,03,8.80
2010,12,22,15,04,8.80
2010,12,22,15,05,8.80
2010,12,22,15,06,8.80
2010,12,22,15,07,8.70
2010,12,22,15,08,8.70
2010,12,22,15,09,8.70
2010,12,22,15,10,8.70
2010,12,22,15,11,8.70
2010,12,22,15,12,8.60
2010,12,22,15,13,8.60
2010,12,22,15,14,8.60
2010,12,22,15,15,8.60
2010,12,22,15,16,8.60
2010,12,22,15,17,8.60
2010,12,22,15,18,8.60
2010,12,22,15,19,8.50
2010,12,22,15,20,8.50
2010,12,22,15,21,8.50
2010,12,22,15,22,8.50
2010,12,22,15,23,8.40
2010,12,22,15,24,8.40
2010,12,22,15,25,8.40
2010,12,22,15,26,8.40
2010,12,22,15,27,8.40
2010,12,22,15,28,8.40
2010,12,22,15,29,8.30
2010,12,22,15,30,8.30
2010,12,22,15,31,8.30
2010,12,22,15,32,8.30
2010,12,22,15,33,8.30
2010,12,22,15,34,8.20
2010,12,22,15,35,8.20
2010,12,22,15,36,8.20
2010,12,22,15,37,8.20
2010,12,22,15,38,8.20
2010,12,22,15,39,8.20
2010,12,22,15,40,8.10
2010,12,22,15,41,8.10
2010,12,22,15,42,8.10
2010,12,22,15,43,8.10
2010,12,22,15,44,8.00
2010,12,22,15,45,8.00
2010,12,22,15,46,8.00
2010,12,22,15,47,7.90
2010,12,22,15,48,7.90
2010,12,22,15,49,7.90
2010,12,22,15,50,7.80
2010,12,22,15,51,7.80
2010,12,22,15,52,7.80
2010,12,22,15,53,7.80
2010,12,22,15,54,7.70
2010,12,22,15,55,7.70
2010,12,22,15,56,7.70
2010,12,22,15,57,7.70
2010,12,22,15,58,7.60
2010,12,22,15,59,7.60
2010,12,22,16,00,7.60
2010,12,22,16,01,7.50
2010,12,22,16,02,7.50
2010,12,22,16,03,7.40
2010,12,22,16,04,7.40
2010,12,22,16,05,7.40
2010,12,22,16,06,7.30
2010,12,22,16,07,7.30
2010,12,22,16,08,7.30
2010,12,22,16,09,7.20
2010,12,22,16,10,7.20
2010,12,22,16,11,7.20
2010,12,22,16,12,7.20
2010,12,22,16,13,7.20
2010,12,22,16,14,7.10
2010,12,22,16,15,7.10
2010,12,22,16,16,7.10
2010,12,22,16,17,7.10
2010,12,22,16,18,7.00
2010,12,22,16,19,7.00
2010,12,22,16,20,6.90
2010,12,22,16,21,6.90
2010,12,22,16,22,6.90
2010,12,22,16,23,6.80
2010,12,22,16,24,6.80
2010,12,22,16,25,6.80
2010,12,22,16,26,6.80
2010,12,22,16,27,6.70
2010,12,22,16,28,6.70
2010,12,22,16,29,6.70
2010,12,22,16,30,6.70
2010,12,22,16,31,6.60
2010,12,22,16,32,6.60
2010,12,22,16,33,6.60
2010,12,22,16,34,6.60
2010,12,22,16,35,6.60
2010,12,22,16,36,6.50
2010,12,22,16,37,6.50
2010,12,22,16,38,6.40
2010,12,22,16,39,6.40
2010,12,22,16,40,6.30
2010,12,22,16,41,6.30
2010,12,22,16,42,6.30
2010,12,22,16,43,6.20
2010,12,22,16,44,6.20
2010,12,22,16,45,6.20
2010,12,22,16,46,6.20
2010,12,22,16,47,6.20
2010,12,22,16,48,6.10
2010,12,22,16,49,6.10
2010,12,22,16,50,6.10
2010,12,22,16,51,6.10
2010,12,22,16,52,6.00
2010,12,22,16,53,6.00
2010,12,22,16,54,5.90
2010,12,22,16,55,5.90
2010,12,22,16,56,5.90
2010,12,22,16,57,5.90
2010,12,22,16,58,5.90
2010,12,22,16,59,5.80
2010,12,22,17,00,5.80
2010,12,22,17,01,5.80
2010,12,22,17,02,5.80
2010,12,22,17,03,5.70
2010,12,22,17,04,5.70
2010,12,22,17,05,5.70
2010,12,22,17,06,5.70
2010,12,22,17,07,5.70
2010,12,22,17,08,5.70
2010,12,22,17,09,5.70
2010,12,22,17,10,5.70
2010,12,22,17,11,5.70
2010,12,22,17,12,5.70
2010,12,22,17,13,5.70
2010,12,22,17,14,5.70
2010,12,22,17,15,5.70
2010,12,22,17,16,5.70
2010,12,22,17,17,5.70
2010,12,22,17,18,5.70
2010,12,22,17,19,5.60
2010,12,22,17,20,5.60
2010,12,22,17,21,5.60
2010,12,22,17,22,5.60
2010,12,22,17,23,5.50
2010,12,22,17,24,5.50
2010,12,22,17,25,5.50
2010,12,22,17,26,5.50
2010,12,22,17,27,5.40
2010,12,22,17,28,5.40
2010,12,22,17,29,5.40
2010,12,22,17,30,5.40
2010,12,22,17,31,5.30
2010,12,22,17,32,5.30
2010,12,22,17,33,5.30
2010,12,22,17,34,5.20
2010,12,22,17,35,5.20
2010,12,22,17,36,5.20
2010,12,22,17,37,5.20
2010,12,22,17,38,5.10
2010,12,22,17,39,5.10
2010,12,22,17,40,5.10
2010,12,22,17,41,5.10
2010,12,22,17,42,5.10
2010,12,22,17,43,5.10
2010,12,22,17,44,5.10
2010,12,22,17,45,5.10
2010,12,22,17,46,5.10
2010,12,22,17,47,5.10
2010,12,22,17,48,5.00
2010,12,22,17,49,5.00
2010,12,22,17,50,4.90
2010,12,22,17,51,4.90
2010,12,22,17,52,4.90
2010,12,22,17,53,4.90
2010,12,22,17,54,4.80
2010,12,22,17,55,4.80
2010,12,22,17,56,4.80
2010,12,22,17,57,4.80
2010,12,22,17,58,4.80
2010,12,22,17,59,4.70